EXPRESS-AT1

Last updated on Thu Oct 30 2025 00:02:49 GMT+0000 (Coordinated Universal Time)

1 39612U 14010A 25302.48208443 .00000088 00000+0 00000+0 0 9996 2 39612 0.0145 248.7491 0000639 217.3700 161.5135 1.00271585 42508
UTC large
Height (km)
Speed (km/s)
/
Latitude / Longitude
Inclination (degrees)
Orbital Period (minutes)
Azimuth
Elevation
Range (km)
Doppler Factor

Next 0 passes for location: London (51.5072 / 0.1276)

Sorry there are no passes over London.